CW8398 Weather Reports


Display with metric or nautical units.
time (UTC)temp
F
wind
direction
speed
MPH
gust
MPH
rain 1hr
in
rain 24hr
in
rain mn
in
humidity
%
barometer
mb
20260504182802 53 191 1.0 5.0 0.00 0.02 0.02 67 1000.6
20260504182304 54 183 2.0 6.0 0.00 0.02 0.02 67 1000.6
20260504181303 54 173 1.0 3.0 0.00 0.02 0.02 66 1000.6
20260504180803 54 224 1.0 3.0 0.00 0.02 0.02 66 1000.6
20260504175802 54 215 5.0 10.0 0.00 0.02 0.02 65 1000.6
20260504175304 55 178 2.0 9.0 0.00 0.02 0.02 65 1000.6
20260504174302 55 241 5.0 10.0 0.00 0.02 0.02 65 1000.6
20260504173802 55 162 3.0 8.0 0.00 0.02 0.02 64 1000.2
20260504172304 55 248 7.0 14.0 0.00 0.02 0.02 63 1000.2
20260504171802 55 222 5.0 10.0 0.00 0.02 0.02 62 1000.2
20260504171302 55 275 5.0 9.0 0.00 0.02 0.02 61 1000.2
20260504170802 55 14 3.0 10.0 0.00 0.02 0.02 60 1000.2
20260504170302 55 245 5.0 9.0 0.00 0.02 0.02 59 1000.2
20260504150802 55 168 5.0 10.0 0.00 0.02 0.02 80 999.9
20260504150302 55 157 7.0 14.0 0.00 0.02 0.02 80 999.9
20260504141302 54 171 5.0 12.0 0.00 0.02 0.02 81 999.9
20260504140802 54 173 6.0 12.0 0.00 0.02 0.02 82 999.9
20260504140303 53 171 5.0 12.0 0.00 0.02 0.02 82 1000.0
20260504130802 55 174 3.0 9.0 0.00 0.02 0.02 82 1000.6
20260504130303 54 153 3.0 12.0 0.00 0.02 0.02 83 1000.6
20260504120302 54 165 4.0 8.0 0.00 0.02 0.02 83 1000.8
20260504110302 52 212 4.0 10.0 0.00 0.02 0.02 86 1001.0
20260504100302 49 166 1.0 3.0 0.00 0.02 0.02 90 1001.4
20260504081802 45 211 1.0 3.0 0.00 0.02 0.02 94 1001.8
20260504081303 44 189 0.0 3.0 0.00 0.02 0.02 94 1001.8
20260504080802 44 202 1.0 5.0 0.00 0.02 0.02 94 1001.8
20260504080303 44 157 1.0 5.0 0.00 0.02 0.02 94 1001.8
20260504050302 41 214 0.0 1.0 0.02 0.02 0.02 90 1003.3
20260504045803 41 214 0.0 1.0 0.02 0.02 0.02 89 1003.3
20260504045304 41 214 0.0 0.0 0.02 0.02 0.02 89 1003.3
20260504044802 41 214 0.0 0.0 0.02 0.02 0.02 88 1003.3
20260504044303 41 214 0.0 0.0 0.02 0.02 0.02 88 1003.3
20260504043802 42 214 0.0 0.0 0.02 0.02 0.02 88 1003.3
20260504043302 42 214 0.0 0.0 0.02 0.02 0.02 87 1003.3
20260504042803 42 214 0.0 0.0 0.02 0.02 0.02 87 1003.3
20260504042304 42 214 0.0 0.0 0.01 0.01 0.01 86 1003.3
20260504041802 42 214 0.0 0.0 0.01 0.01 0.01 85 1003.5
20260504041302 42 214 0.0 0.0 0.00 0.00 0.00 84 1003.5
20260504040803 42 214 0.0 0.0 0.00 0.00 0.00 82 1003.5
20260504040302 42 214 0.0 0.0 0.00 0.00 0.00 82 1003.5
20260504035802 42 214 0.0 0.0 0.00 0.00 0.00 81 1003.5
20260504035304 42 214 0.0 0.0 0.00 0.00 0.00 81 1003.5
20260504034802 42 214 0.0 0.0 0.00 0.00 0.00 81 1003.6
20260504034303 42 214 0.0 0.0 0.00 0.00 0.00 81 1003.6
20260504033802 42 214 0.0 0.0 0.00 0.00 0.00 81 1003.6
20260504033302 42 214 0.0 0.0 0.00 0.00 0.00 81 1003.7
20260504032803 42 214 0.0 0.0 0.00 0.00 0.00 80 1003.7
20260504032304 42 214 0.0 0.0 0.00 0.00 0.00 80 1003.7
20260504031803 42 214 0.0 0.0 0.00 0.00 0.00 80 1003.7
20260504031303 42 214 0.0 0.0 0.00 0.00 0.00 80 1004.3
20260504030303 42 214 0.0 0.0 0.00 0.00 0.00 81 1004.3
20260504025802 42 214 0.0 1.0 0.00 0.00 0.00 81 1004.3
20260504025304 41 214 1.0 2.0 0.00 0.00 0.00 81 1004.3
20260504024802 41 214 0.0 1.0 0.00 0.00 0.00 81 1004.3
20260504024302 41 214 0.0 0.0 0.00 0.00 0.00 81 1004.6
20260504023802 41 214 0.0 1.0 0.00 0.00 0.00 81 1004.6
20260504023302 42 214 0.0 0.0 0.00 0.00 0.00 81 1004.6
20260504022304 42 214 1.0 2.0 0.00 0.00 0.00 81 1004.6
20260504021803 42 214 0.0 1.0 0.00 0.00 0.00 80 1004.6
20260504021303 42 214 0.0 1.0 0.00 0.00 0.00 80 1004.6
20260504020803 42 214 0.0 0.0 0.00 0.00 0.00 80 1004.6
20260504020303 42 214 0.0 1.0 0.00 0.00 0.00 80 1004.6
20260504015803 42 214 0.0 1.0 0.00 0.00 0.00 80 1004.6
20260504015304 42 214 0.0 1.0 0.00 0.00 0.00 80 1004.6
20260504014802 42 214 0.0 2.0 0.00 0.00 0.00 80 1005.2
20260504014303 42 214 0.0 1.0 0.00 0.00 0.00 80 1005.2
20260504013803 42 214 0.0 2.0 0.00 0.00 0.00 80 1005.2
20260504013303 42 214 0.0 2.0 0.00 0.00 0.00 80 1005.2
20260504012802 42 214 0.0 0.0 0.00 0.00 0.00 79 1005.2
20260504012304 42 214 0.0 0.0 0.00 0.00 0.00 80 1005.2
20260504011803 42 214 0.0 0.0 0.00 0.00 0.00 79 1005.2
20260504011302 42 214 0.0 1.0 0.00 0.00 0.00 79 1005.2
20260504010803 42 214 0.0 1.0 0.00 0.00 0.00 79 1005.3
20260504005803 42 214 0.0 1.0 0.00 0.00 0.00 80 1005.3
20260504005304 42 214 0.0 1.0 0.00 0.00 0.00 80 1005.3
20260504004302 42 214 0.0 1.0 0.00 0.00 0.00 80 1005.5
20260504003802 42 214 0.0 1.0 0.00 0.00 0.00 80 1005.5
20260504003303 42 214 1.0 2.0 0.00 0.00 0.00 80 1005.6
20260504002803 42 214 0.0 2.0 0.00 0.00 0.00 80 1005.6
20260504002304 42 214 0.0 0.0 0.00 0.00 0.00 79 1005.6
20260504001803 42 214 0.0 2.0 0.00 0.00 0.00 79 1005.7
20260504001302 42 214 0.0 1.0 0.00 0.00 0.00 79 1005.9
20260503235803 43 222 1.0 2.0 0.00 0.00 0.00 79 1005.9
20260503235304 42 222 0.0 0.0 0.00 0.00 0.00 79 1005.9
20260503234803 42 222 0.0 0.0 0.00 0.00 0.00 79 1005.9
20260503234303 43 222 0.0 0.0 0.00 0.00 0.00 79 1005.9
20260503233803 43 222 0.0 0.0 0.00 0.00 0.00 78 1006.1
20260503232802 43 222 0.0 0.0 0.00 0.00 0.00 79 1006.1
20260503232305 43 222 0.0 0.0 0.00 0.00 0.00 79 1006.1
20260503231802 43 222 0.0 0.0 0.00 0.00 0.00 79 1006.4
20260503231303 43 222 0.0 0.0 0.00 0.00 0.00 78 1006.4
20260503230802 43 222 0.0 0.0 0.00 0.00 0.00 78 1006.4
20260503230303 43 222 0.0 0.0 0.00 0.00 0.00 78 1006.4
20260503225803 43 222 0.0 0.0 0.00 0.00 0.00 78 1006.4
20260503225304 43 222 0.0 0.0 0.00 0.00 0.00 78 1006.4
20260503224802 43 222 0.0 0.0 0.00 0.00 0.00 79 1006.4
20260503224303 43 222 0.0 0.0 0.00 0.00 0.00 80 1006.4
20260503223803 43 222 0.0 0.0 0.00 0.00 0.00 79 1006.7
20260503222802 43 222 0.0 1.0 0.00 0.00 0.00 80 1006.7
20260503222304 43 222 0.0 1.0 0.00 0.00 0.00 80 1006.7
20260503221803 43 222 1.0 2.0 0.00 0.00 0.00 80 1006.7
20260503220303 43 302 0.0 1.0 0.00 0.00 0.00 80 1006.7
20260503215803 43 302 0.0 1.0 0.00 0.00 0.00 80 1006.7
20260503215304 43 302 0.0 1.0 0.00 0.00 0.00 80 1006.7
20260503214302 43 302 1.0 2.0 0.00 0.00 0.00 80 1006.7
20260503213803 43 327 0.0 2.0 0.00 0.00 0.00 80 1006.9
20260503213303 43 349 1.0 2.0 0.00 0.00 0.00 80 1006.9
20260503212802 43 298 1.0 2.0 0.00 0.00 0.00 80 1006.9
20260503212304 43 339 1.0 2.0 0.00 0.00 0.00 80 1006.9
20260503211802 43 40 0.0 1.0 0.00 0.00 0.00 79 1006.9
20260503211303 43 12 0.0 1.0 0.00 0.00 0.00 79 1006.9
20260503210303 43 34 0.0 1.0 0.00 0.00 0.00 79 1006.9
20260503205803 43 34 0.0 0.0 0.00 0.00 0.00 79 1007.1
20260503205304 43 34 0.0 2.0 0.00 0.00 0.00 79 1007.1
20260503204802 43 34 1.0 2.0 0.00 0.00 0.00 79 1007.1
20260503204303 43 34 0.0 1.0 0.00 0.00 0.00 79 1007.1
20260503203802 43 34 0.0 1.0 0.00 0.00 0.00 79 1007.1
20260503203303 43 34 0.0 0.0 0.00 0.00 0.00 79 1007.1
20260503202304 43 34 0.0 1.0 0.00 0.00 0.00 79 1007.1
20260503201803 43 34 0.0 1.0 0.00 0.00 0.00 79 1007.1
20260503200803 43 34 0.0 0.0 0.00 0.00 0.00 79 1007.1
20260503200303 43 34 0.0 0.0 0.00 0.00 0.00 78 1007.2
20260503195304 43 34 0.0 0.0 0.00 0.00 0.00 79 1007.2
20260503194803 43 34 0.0 0.0 0.00 0.00 0.00 79 1007.3
20260503194302 43 34 0.0 1.0 0.00 0.00 0.00 79 1007.3
20260503193803 43 34 0.0 0.0 0.00 0.00 0.00 79 1007.3
20260503192803 43 34 0.0 0.0 0.00 0.00 0.00 78 1007.3
20260503192305 43 34 0.0 0.0 0.00 0.00 0.00 79 1007.3
20260503191803 43 34 0.0 1.0 0.00 0.00 0.00 79 1007.3
20260503190803 43 25 0.0 1.0 0.00 0.00 0.00 78 1007.3
20260503190303 43 25 0.0 1.0 0.00 0.00 0.00 78 1007.3
20260503185803 43 25 0.0 2.0 0.00 0.00 0.00 78 1007.3
20260503185304 43 12 1.0 2.0 0.00 0.00 0.00 77 1007.3
20260503184803 43 5 0.0 2.0 0.00 0.00 0.00 77 1007.2
20260503184303 43 344 1.0 2.0 0.00 0.00 0.00 77 1007.2
20260503183802 43 5 1.0 3.0 0.00 0.00 0.00 77 1007.2
20260503183303 44 24 1.0 3.0 0.00 0.00 0.00 77 1007.2